• In Switzerland
  • List of Countries
  • For 7 days
  • Water Temperature
  • Satellite Maps
  • Weather Map
  • Weather Widgets
  • user-avatar
    Login

    Hourly Weather Istomino

    Today, 24 May, Thursday

    Time Temperature Precipitation Wind Pressure Humidity
    00:00 +22°C° 0 mm 1 mps 760 mmHg 86%
    01:00 +22°C° 0.1 mm 1 mps 759 mmHg 87%
    02:00 +21°C° 0.1 mm 1 mps 759 mmHg 88%
    03:00 +21°C° 0 mm 1 mps 759 mmHg 90%
    04:00 +21°C° 0 mm 1 mps 759 mmHg 90%
    05:00 +22°C° 0 mm 1 mps 759 mmHg 90%
    06:00 +22°C° 0 mm 1 mps 759 mmHg 90%
    07:00 +23°C° 0 mm 2 mps 759 mmHg 84%
    08:00 +24°C° 0 mm 2 mps 759 mmHg 78%
    09:00 +26°C° 0 mm 2 mps 759 mmHg 73%
    10:00 +27°C° 0.1 mm 3 mps 758 mmHg 68%
    11:00 +28°C° 0.1 mm 3 mps 758 mmHg 64%
    12:00 +29°C° 0.1 mm 3 mps 758 mmHg 60%
    13:00 +28°C° 0.4 mm 3 mps 758 mmHg 63%
    14:00 +27°C° 0.4 mm 3 mps 758 mmHg 67%
    15:00 +27°C° 0.4 mm 3 mps 758 mmHg 71%
    16:00 +26°C° 0.3 mm 3 mps 757 mmHg 74%
    17:00 +25°C° 0.3 mm 3 mps 757 mmHg 78%
    18:00 +24°C° 0.3 mm 3 mps 757 mmHg 82%
    19:00 +24°C° 0 mm 3 mps 757 mmHg 83%
    20:00 +22°C° 0 mm 3 mps 757 mmHg 85%
    21:00 +21°C° 0 mm 2 mps 757 mmHg 87%
    22:00 +20°C° 0.2 mm 2 mps 757 mmHg 88%
    23:00 +20°C° 0.2 mm 2 mps 757 mmHg 89%

    Tomorrow, 25 May, Friday

    Time Temperature Precipitation Wind Pressure Humidity
    00:00 +20°C° 0.2 mm 2 mps 756 mmHg 90%
    01:00 +19°C° 0.3 mm 2 mps 756 mmHg 90%
    02:00 +19°C° 0.3 mm 2 mps 756 mmHg 89%
    03:00 +19°C° 0.3 mm 2 mps 756 mmHg 89%
    04:00 +19°C° 0.2 mm 2 mps 756 mmHg 89%
    05:00 +19°C° 0.2 mm 2 mps 756 mmHg 89%
    06:00 +21°C° 0.2 mm 1 mps 756 mmHg 88%
    07:00 +21°C° 0 mm 2 mps 756 mmHg 84%
    08:00 +23°C° 0 mm 2 mps 756 mmHg 79%
    09:00 +25°C° 0 mm 2 mps 756 mmHg 75%
    10:00 +26°C° 0.5 mm 2 mps 756 mmHg 70%
    11:00 +27°C° 0.5 mm 3 mps 756 mmHg 66%
    12:00 +28°C° 0.5 mm 3 mps 756 mmHg 62%
    13:00 +28°C° 0.6 mm 3 mps 756 mmHg 60%
    14:00 +29°C° 0.6 mm 2 mps 756 mmHg 59%
    15:00 +29°C° 0.6 mm 2 mps 756 mmHg 57%
    16:00 +28°C° 1.1 mm 2 mps 756 mmHg 62%
    17:00 +28°C° 1.1 mm 2 mps 756 mmHg 66%
    18:00 +27°C° 1.1 mm 2 mps 756 mmHg 71%
    19:00 +26°C° 0.3 mm 2 mps 756 mmHg 75%
    20:00 +24°C° 0.3 mm 3 mps 756 mmHg 79%
    21:00 +22°C° 0.3 mm 3 mps 757 mmHg 84%
    22:00 +21°C° 0.3 mm 3 mps 757 mmHg 86%
    23:00 +21°C° 0.3 mm 3 mps 757 mmHg 87%

    Day after tomorrow, 26 May, Saturday

    Time Temperature Precipitation Wind Pressure Humidity
    00:00 +20°C° 0.3 mm 3 mps 757 mmHg 89%
    01:00 +20°C° 0.3 mm 4 mps 758 mmHg 90%
    02:00 +20°C° 0.3 mm 5 mps 758 mmHg 91%
    03:00 +19°C° 0.3 mm 6 mps 758 mmHg 91%
    04:00 +18°C° 0.1 mm 7 mps 759 mmHg 90%
    05:00 +17°C° 0.1 mm 7 mps 760 mmHg 88%
    06:00 +16°C° 0.1 mm 8 mps 760 mmHg 87%
    07:00 +16°C° 0 mm 8 mps 761 mmHg 82%
    08:00 +17°C° 0 mm 9 mps 761 mmHg 78%
    09:00 +17°C° 0 mm 9 mps 762 mmHg 73%
    10:00 +18°C° 0 mm 9 mps 762 mmHg 69%
    11:00 +19°C° 0 mm 9 mps 763 mmHg 65%
    12:00 +21°C° 0 mm 10 mps 763 mmHg 61%
    13:00 +21°C° 0 mm 10 mps 763 mmHg 59%
    14:00 +21°C° 0 mm 10 mps 764 mmHg 57%
    15:00 +22°C° 0 mm 10 mps 764 mmHg 55%
    16:00 +21°C° 0 mm 9 mps 764 mmHg 56%
    17:00 +21°C° 0 mm 8 mps 764 mmHg 57%
    18:00 +20°C° 0 mm 8 mps 765 mmHg 58%
    19:00 +18°C° 0 mm 8 mps 765 mmHg 54%
    20:00 +17°C° 0 mm 8 mps 765 mmHg 51%
    21:00 +16°C° 0 mm 8 mps 766 mmHg 47%
    22:00 +16°C° 0 mm 8 mps 766 mmHg 47%
    23:00 +15°C° 0 mm 8 mps 766 mmHg 46%

    27 May, Sunday

    Time Temperature Precipitation Wind Pressure Humidity
    00:00 +15°C° 0 mm 9 mps 767 mmHg 45%
    01:00 +13°C° 0 mm 8 mps 767 mmHg 46%
    02:00 +13°C° 0 mm 8 mps 767 mmHg 46%
    03:00 +12°C° 0 mm 8 mps 767 mmHg 47%
    04:00 +12°C° 0 mm 8 mps 767 mmHg 51%
    05:00 +11°C° 0 mm 8 mps 767 mmHg 55%
    06:00 +11°C° 0 mm 8 mps 767 mmHg 58%
    07:00 +12°C° 0 mm 8 mps 767 mmHg 58%
    08:00 +13°C° 0 mm 8 mps 767 mmHg 57%
    09:00 +16°C° 0 mm 9 mps 767 mmHg 56%
    10:00 +17°C° 0 mm 9 mps 767 mmHg 55%
    11:00 +19°C° 0 mm 9 mps 767 mmHg 53%
    12:00 +21°C° 0 mm 8 mps 767 mmHg 51%
    13:00 +21°C° 0 mm 8 mps 766 mmHg 51%
    14:00 +22°C° 0 mm 8 mps 766 mmHg 50%
    15:00 +23°C° 0 mm 8 mps 765 mmHg 50%
    16:00 +22°C° 0 mm 7 mps 765 mmHg 53%
    17:00 +22°C° 0 mm 6 mps 765 mmHg 57%
    18:00 +22°C° 0 mm 5 mps 765 mmHg 60%
    19:00 +20°C° 0 mm 5 mps 765 mmHg 59%
    20:00 +19°C° 0 mm 5 mps 765 mmHg 59%
    21:00 +17°C° 0 mm 6 mps 765 mmHg 58%
    22:00 +16°C° 0 mm 5 mps 764 mmHg 56%
    23:00 +16°C° 0 mm 5 mps 764 mmHg 54%

    28 May, Monday

    Time Temperature Precipitation Wind Pressure Humidity
    00:00 +15°C° 0 mm 5 mps 764 mmHg 52%
    01:00 +14°C° 0 mm 5 mps 764 mmHg 52%
    02:00 +14°C° 0 mm 5 mps 764 mmHg 51%
    03:00 +13°C° 0 mm 6 mps 764 mmHg 51%
    04:00 +13°C° 0 mm 6 mps 764 mmHg 54%
    05:00 +11°C° 0 mm 6 mps 764 mmHg 57%
    06:00 +11°C° 0 mm 6 mps 764 mmHg 60%
    07:00 +14°C° 0 mm 6 mps 764 mmHg 60%
    08:00 +15°C° 0 mm 6 mps 764 mmHg 59%
    09:00 +17°C° 0 mm 7 mps 764 mmHg 58%
    10:00 +18°C° 0 mm 7 mps 764 mmHg 56%
    11:00 +20°C° 0 mm 7 mps 764 mmHg 54%
    12:00 +22°C° 0 mm 7 mps 764 mmHg 52%
    13:00 +23°C° 0 mm 7 mps 764 mmHg 50%
    14:00 +23°C° 0 mm 7 mps 764 mmHg 49%
    15:00 +24°C° 0 mm 7 mps 763 mmHg 48%
    16:00 +23°C° 0 mm 6 mps 763 mmHg 50%
    17:00 +23°C° 0 mm 6 mps 764 mmHg 53%
    18:00 +22°C° 0 mm 5 mps 764 mmHg 55%
    19:00 +21°C° 0 mm 6 mps 764 mmHg 51%
    20:00 +20°C° 0 mm 6 mps 764 mmHg 47%
    21:00 +19°C° 0 mm 6 mps 765 mmHg 43%
    22:00 +17°C° 0 mm 6 mps 765 mmHg 44%
    23:00 +17°C° 0 mm 6 mps 765 mmHg 45%

    29 May, Tuesday

    Time Temperature Precipitation Wind Pressure Humidity
    00:00 +17°C° 0 mm 7 mps 765 mmHg 46%
    01:00 +17°C° 0 mm 7 mps 765 mmHg 48%
    02:00 +16°C° 0 mm 7 mps 765 mmHg 50%
    03:00 +16°C° 0 mm 7 mps 765 mmHg 52%
    04:00 +16°C° 0 mm 7 mps 765 mmHg 58%
    05:00 +15°C° 0 mm 6 mps 766 mmHg 63%
    06:00 +15°C° 0 mm 6 mps 766 mmHg 69%
    07:00 +17°C° 0 mm 7 mps 766 mmHg 67%
    08:00 +18°C° 0 mm 7 mps 767 mmHg 64%
    09:00 +21°C° 0 mm 8 mps 767 mmHg 62%
    10:00 +22°C° 0 mm 8 mps 767 mmHg 59%
    11:00 +23°C° 0 mm 8 mps 767 mmHg 56%
    12:00 +24°C° 0 mm 8 mps 767 mmHg 54%
    13:00 +24°C° 0 mm 8 mps 766 mmHg 52%
    14:00 +24°C° 0 mm 8 mps 766 mmHg 51%
    15:00 +26°C° 0 mm 8 mps 766 mmHg 49%
    16:00 +24°C° 0 mm 8 mps 766 mmHg 51%
    17:00 +23°C° 0 mm 7 mps 766 mmHg 53%
    18:00 +22°C° 0 mm 6 mps 766 mmHg 55%
    19:00 +21°C° 0 mm 6 mps 766 mmHg 54%
    20:00 +20°C° 0 mm 6 mps 766 mmHg 53%
    21:00 +17°C° 0 mm 6 mps 766 mmHg 53%
    22:00 +17°C° 0 mm 6 mps 766 mmHg 51%
    23:00 +16°C° 0 mm 6 mps 766 mmHg 49%
    Show more